Regional Weather Roundup
Issued by NWS

Home | Current Version | Previous Version | Graphics & Text | Print | Product List | Glossary On
Versions: 1 2 3 4 5 6 7 8 9 10 11 12 13 14 15 16 17 18 19 20 21 22 23 24 25 26 27 28 29 30 31 32 33 34 35 36 37 38 39 40 41 42 43 44 45 46 47 48 49 50
000
ASUS43 KLSX 050607
RWRMO

WEATHER SUMMARY FOR MISSOURI
NATIONAL WEATHER SERVICE SPRINGFIELD MO
100 AM CDT SUN JUL 05 2015

NOTE: "FAIR" INDICATES FEW OR NO CLOUDS BELOW 12,000 FEET WITH NO
       SIGNIFICANT WEATHER AND/OR OBSTRUCTIONS TO VISIBILITY.
       CURRENT SKY AND/OR WEATHER CONDITIONS ARE NOT AVAILABLE FOR
       CHILLICOTHE AND FARMINGTON.

MOZ001>031-035>038-043-044-053-054-050700-
...NORTHERN AND WESTERN MISSOURI...

CITY           SKY/WX    TMP DP  RH WIND       PRES   REMARKS
KANSAS CTY INT CLEAR     68  63  84 SE8       30.01R
6HR MIN TEMP:  68; 6HR MAX TEMP:  79;

KANSAS C DTWN  CLEAR     75  64  68 SE7       30.00R
6HR MIN TEMP:  75; 6HR MAX TEMP:  82;

LEE`S SUMMIT   CLEAR     71  64  78 SE5       30.02R
6HR MIN TEMP:  71; 6HR MAX TEMP:  80;

ST JOSEPH      CLEAR     70  64  81 CALM      30.00R
6HR MIN TEMP:  69; 6HR MAX TEMP:  81;

CHILLICOTHE      N/A     66  64  93 CALM      30.03R
6HR MIN TEMP:  66; 6HR MAX TEMP:  81;

KIRKSVILLE     RAIN      63  60  90 CALM      30.04R
6HR MIN TEMP:  62; 6HR MAX TEMP:  79; 6HR PCP: TRACE;


$$
MOZ066>068-077>081-088>096-101>105-050700-
...SOUTHWEST MISSOURI...

CITY           SKY/WX    TMP DP  RH WIND       PRES   REMARKS
SPRINGFIELD    PTCLDY    73  68  84 S7        30.02S
6HR MIN TEMP:  73; 6HR MAX TEMP:  83;

JOPLIN         PTCLDY    73  68  84 SE6       30.00S
6HR MIN TEMP:  72; 6HR MAX TEMP:  83;


$$
MOZ032>034-039>042-045>050-055>058-069>072-050700-
...CENTRAL MISSOURI...

CITY           SKY/WX    TMP DP  RH WIND       PRES   REMARKS
COLUMBIA       CLEAR     69  65  86 SE7       30.04R
6HR MIN TEMP:  69; 6HR MAX TEMP:  80;

JEFFERSON CITY PTCLDY    69  65  86 SE5       30.02S
6HR MIN TEMP:  69; 6HR MAX TEMP:  81;

ROLLA          PTCLDY    69  65  86 SE6       30.04R
6HR MIN TEMP:  68; 6HR MAX TEMP:  78;

SEDALIA        CLEAR     70  65  84 SE7       30.03R
6HR MIN TEMP:  70; 6HR MAX TEMP:  80;

WHITEMAN AFB   CLEAR     69  65  85 SE2       30.01R
WARRENSBURG    CLEAR     68  63  83 CALM      30.02R
OSAGE BEACH    PTCLDY    70  64  83 E3        30.03R

$$
MOZ051-052-059>065-050700-
...EAST CENTRAL MISSOURI...

CITY           SKY/WX    TMP DP  RH WIND       PRES   REMARKS
ST LOUIS INTL  CLEAR     70  62  76 SE5       30.05R HAZE
6HR MIN TEMP:  70; 6HR MAX TEMP:  81;

SPIRIT OF STL  CLEAR     67  64  90 CALM      30.03R FOG
6HR MIN TEMP:  66; 6HR MAX TEMP:  78;

ST CHARLES     CLEAR     69  66  90 E3        30.03R
6HR MIN TEMP:  69; 6HR MAX TEMP:  79;


$$
MOZ072>076-082>087-097>100-106>115-050700-
...SOUTH CENTRAL AND SOUTHEAST MISSOURI...

CITY           SKY/WX    TMP DP  RH WIND       PRES   REMARKS
CAPE GIRARDEAU PTCLDY    69  68  96 SW3       30.03S
6HR MIN TEMP:  69; 6HR MAX TEMP:  78;

FARMINGTON     CLOUDY    66  64  94 CALM      30.09S
6HR MIN TEMP:  66; 6HR MAX TEMP:  79;

POPLAR BLUFF   CLEAR     72  70  93 CALM      30.03R FOG
6HR MIN TEMP:  71; 6HR MAX TEMP:  77;

WEST PLAINS    MOCLDY    71  68  90 SE3       30.07R
6HR MIN TEMP:  71; 6HR MAX TEMP:  79;


$$



USA.gov is the U.S. government's official web portal to all federal, state and local government web resources and services.